Wind_Speed
18 18 17 17 17 16 16 17 16 16 16 15 15 14 13 12 12 12 11 10 9 9 9 9 8 8 8 7 7 6 6 6 5 5 6 6 6 6 6 6 6 7 7
20 20 20 19 19 18 18 18 18 18 17 17 17 16 15 14 14 14 13 12 11 11 10 10 9 9 9 9 8 8 8 8 7 7 7 7 7 7 7 8 8 8 9
22 22 22 21 21 20 20 19 19 20 19 19 18 17 17 16 16 15 15 14 13 13 12 11 11 10 10 10 10 10 10 9 9 9 9 8 8 8 9 9 9 10 10
24 24 23 23 23 22 22 21 21 21 21 20 20 19 18 18 17 17 16 16 15 14 14 13 12 12 11 11 11 11 11 10 10 10 10 10 10 10 10 11 11 11 12
26 26 25 26 25 25 24 23 23 22 22 22 21 21 20 19 19 18 18 17 17 16 15 15 14 14 13 13 13 12 12 12 12 12 12 12 12 12 12 13 13 13 14
26 27 28 28 27 27 26 26 25 24 24 23 23 23 22 21 21 20 19 19 19 18 17 17 16 16 15 15 14 14 13 13 13 13 13 13 14 14 14 14 15 15 15
28 28 29 29 29 28 28 28 28 27 26 25 25 24 24 23 23 22 22 21 21 20 19 19 19 18 17 17 16 15 15 15 15 15 15 15 15 15 15 16 16 17 17
30 29 30 31 31 30 30 30 30 29 28 28 27 27 26 26 25 24 24 24 23 22 21 21 21 20 20 19 18 18 18 17 17 17 17 17 17 17 17 17 17 18 18
31 31 32 33 32 32 32 31 32 31 31 30 30 29 28 28 27 27 26 26 25 24 24 23 23 23 22 21 21 20 20 20 19 19 19 18 19 19 19 19 19 19 19
33 33 34 34 35 34 34 34 33 33 33 33 32 31 31 31 30 29 29 28 28 27 26 25 25 25 24 24 23 22 22 21 21 21 21 21 21 21 20 20 21 20 20
35 35 35 36 36 36 36 36 36 35 35 35 35 34 33 33 32 32 31 31 30 30 29 28 27 27 26 25 25 24 24 23 23 23 23 23 23 22 22 22 23 23 23
37 37 37 38 38 38 38 38 38 37 37 37 37 37 36 35 35 34 34 33 33 32 31 31 30 29 28 28 27 27 26 26 25 25 25 25 25 25 25 24 24 24 25
38 38 39 40 40 40 40 39 39 39 39 39 39 39 39 38 37 36 36 35 35 34 34 33 32 31 31 30 30 29 29 28 28 27 27 27 27 27 27 27 26 26 26
39 39 40 41 42 42 41 41 41 41 41 41 41 41 41 40 39 39 37 37 37 37 36 36 35 34 33 32 32 32 31 31 30 30 30 29 29 29 29 29 29 28 28
38 39 40 41 42 43 43 42 43 42 42 42 42 42 43 43 41 41 39 39 38 39 38 37 37 36 36 35 34 34 33 33 32 31 31 31 30 30 31 31 30 30 29
38 38 40 40 41 42 43 43 44 43 43 44 44 44 44 44 43 42 41 41 40 40 40 40 39 38 37 36 36 35 35 34 34 33 32 32 31 31 31 31 31 31 31
38 39 39 41 41 41 43 44 44 44 44 44 45 45 45 46 45 43 42 42 42 42 42 41 41 40 40 38 38 37 36 36 35 35 34 33 32 32 32 31 31 31 32
39 40 40 41 41 41 43 44 44 45 44 44 45 46 46 46 45 44 44 43 44 43 43 43 43 41 41 40 40 39 38 37 36 36 35 34 33 33 32 33 33 32 33
40 40 41 41 41 43 44 43 43 44 44 44 45 46 46 47 47 46 44 44 44 44 43 43 43 42 41 40 40 40 40 39 38 37 37 36 35 34 33 33 33 33 34
40 40 41 42 43 44 44 43 44 44 44 45 45 46 47 48 48 47 46 45 44 43 43 43 44 44 43 41 41 41 41 41 40 39 38 38 37 36 35 35 34 34 34
39 40 42 42 42 42 44 44 44 44 44 45 46 48 47 47 48 47 47 46 45 44 43 43 44 43 44 43 42 42 41 40 40 39 39 38 38 37 36 36 36 36 36
38 39 41 42 43 43 44 44 45 44 45 45 45 46 47 48 49 48 47 46 44 45 45 44 43 42 43 44 43 42 41 40 39 39 39 39 37 37 37 37 37 37 37
37 38 39 40 42 43 45 45 45 45 44 44 45 45 46 48 49 48 47 46 46 46 45 45 43 43 43 43 43 42 41 40 39 39 39 39 38 38 38 38 38 38 37
38 39 40 40 40 42 45 45 44 45 45 43 44 46 46 47 48 47 47 47 46 45 45 45 45 44 43 43 43 42 41 40 39 38 38 39 39 39 39 39 39 38 38
38 38 40 40 39 41 42 43 45 45 46 44 44 46 45 46 46 46 47 47 47 46 46 47 46 46 43 43 43 42 41 41 40 38 39 39 40 39 40 40 40 39 38
36 38 38 39 39 41 41 42 44 45 45 45 44 45 45 46 46 47 47 47 47 47 47 48 48 47 45 45 44 44 43 42 41 40 40 40 40 40 40 39 39 39 38
Wind_Direction
249 246 243 241 239 238 238 238 238 237 237 238 237 235 234 234 233 233 233 233 236 236 235 237 241 247 251 256 260 263 267 271 276 281 284 286 286 288 290 294 300 305 309
249 247 244 242 240 238 238 238 239 238 238 238 238 237 237 235 236 236 236 235 237 239 240 241 245 249 254 258 261 266 271 270 273 277 281 283 285 287 288 291 296 300 303
249 247 245 244 242 240 239 239 239 240 240 240 240 239 239 238 239 240 240 239 240 242 245 246 249 253 256 259 261 265 270 274 273 276 278 280 281 284 286 289 292 296 300
249 246 244 243 242 241 240 240 239 240 241 241 241 240 239 239 240 242 243 243 243 244 247 249 252 255 258 260 262 264 268 273 277 277 277 277 279 282 283 285 288 293 297
251 247 245 243 242 242 242 242 241 241 241 242 243 242 242 242 242 242 243 244 245 246 248 250 253 255 258 261 262 264 267 271 274 277 278 279 280 281 282 283 286 289 293
252 249 246 244 243 243 243 242 243 242 242 242 243 243 243 243 244 243 243 244 245 247 249 250 252 255 258 261 262 264 266 269 272 274 276 277 279 281 281 282 283 286 289
250 249 247 245 243 243 244 243 243 244 243 243 243 243 244 244 244 244 245 246 247 248 249 252 254 255 257 260 262 264 266 268 269 272 274 275 276 279 281 283 282 284 286
249 248 247 244 243 243 243 244 244 244 244 244 244 244 245 245 245 246 247 247 248 249 251 253 255 257 258 260 261 263 266 267 268 270 273 274 275 277 279 280 282 283 284
249 247 247 244 243 243 243 243 244 244 244 245 245 245 246 247 247 248 248 248 249 250 252 254 255 257 258 260 260 262 265 267 268 269 271 273 274 276 278 278 279 282 284
249 249 247 245 244 244 244 243 244 244 245 245 245 246 247 248 248 248 249 249 249 251 253 254 256 256 259 260 261 262 264 267 269 270 270 272 274 275 277 278 279 280 282
249 249 248 245 244 244 245 244 244 245 245 245 245 246 247 248 249 249 249 250 250 251 253 255 256 256 257 259 260 261 263 266 268 270 271 272 273 275 276 278 279 280 281
250 250 248 246 245 245 246 245 244 245 246 246 246 246 248 248 250 251 251 250 250 251 253 255 256 256 256 258 260 261 263 265 268 269 270 271 273 274 276 277 279 280 280
250 248 246 245 246 245 246 246 246 246 246 246 246 247 248 248 250 251 252 251 251 252 253 254 255 256 257 258 260 261 262 264 265 268 269 271 272 273 275 276 278 278 279
250 247 245 244 245 245 245 246 246 246 246 246 247 247 247 248 250 251 253 252 251 252 253 255 255 256 256 257 259 260 262 263 265 268 268 269 271 272 273 275 275 276 277
250 247 245 244 244 244 245 246 247 247 247 247 248 248 247 248 250 252 253 253 253 253 253 254 254 254 256 257 259 260 262 264 265 267 267 267 269 272 274 275 274 274 275
249 247 245 245 245 245 244 245 247 248 248 247 248 249 248 248 250 252 252 253 253 253 253 252 252 253 255 257 259 260 262 263 264 265 267 268 269 271 273 274 274 273 274
248 247 246 245 246 246 244 244 246 248 248 248 248 248 248 249 251 252 252 254 253 252 252 251 252 253 254 256 258 261 262 262 263 265 267 268 269 271 272 274 274 273 273
247 246 248 247 247 247 246 246 245 247 248 249 249 248 248 250 251 252 254 255 254 253 252 252 253 254 254 256 257 258 260 261 262 263 264 267 269 271 272 273 274 273 273
247 246 247 247 247 247 246 247 247 249 249 249 249 248 249 249 250 252 253 254 255 253 251 252 252 253 254 255 256 257 258 260 261 262 263 265 268 270 271 273 274 274 272
247 247 247 247 246 246 245 246 248 250 251 250 249 249 249 249 250 251 252 253 253 251 250 251 253 253 254 254 256 257 258 260 261 261 263 265 266 268 270 271 273 273 272
247 247 247 247 247 246 245 246 247 250 251 250 250 250 250 250 250 251 251 252 251 249 249 251 254 253 253 254 255 256 258 260 261 262 263 264 265 267 269 271 272 272 272
246 248 249 248 248 247 247 247 247 250 250 250 251 251 251 250 251 252 251 250 249 249 249 251 253 254 254 253 255 256 257 258 260 261 261 262 264 266 268 271 271 271 271
246 248 251 250 248 248 248 248 248 249 249 250 251 254 253 252 252 252 251 249 250 251 252 252 252 252 253 253 254 256 257 258 259 259 261 261 263 266 268 271 270 270 271
249 251 249 250 248 249 249 248 249 249 250 252 252 253 253 252 252 252 251 250 251 252 252 252 251 251 254 254 254 255 257 258 259 257 259 261 262 264 267 269 269 269 270
250 250 248 248 247 249 250 250 251 251 251 252 252 252 253 252 252 252 252 251 252 251 252 252 251 250 251 254 255 256 257 258 258 257 258 260 262 264 267 268 268 268 269
253 251 248 247 248 249 250 252 252 251 252 252 253 253 253 252 251 251 252 251 252 252 252 252 251 250 251 254 255 255 256 256 256 258 260 260 261 264 266 268 268 267 268
Height
5852 5853 5854 5854 5855 5856 5857 5857 5858 5859 5860 5861 5862 5862 5862 5863 5863 5863 5863 5864 5864 5864 5864 5864 5864 5864 5864 5864 5863 5863 5863 5863 5862 5862 5862 5861 5861 5860 5859 5859 5858 5858 5857
5848 5849 5850 5851 5852 5852 5853 5854 5855 5856 5857 5858 5859 5860 5860 5860 5861 5861 5861 5862 5862 5862 5862 5862 5862 5862 5862 5862 5862 5861 5861 5861 5861 5860 5860 5860 5859 5859 5858 5857 5857 5856 5855
5844 5844 5845 5846 5848 5849 5850 5851 5852 5853 5854 5855 5856 5857 5857 5858 5858 5858 5859 5859 5859 5860 5860 5860 5860 5860 5860 5860 5860 5859 5859 5859 5859 5858 5858 5858 5857 5857 5856 5856 5855 5854 5854
5838 5839 5840 5842 5843 5844 5845 5847 5848 5849 5850 5851 5852 5853 5854 5854 5855 5855 5856 5856 5857 5857 5857 5857 5857 5857 5857 5857 5857 5857 5857 5857 5856 5856 5856 5855 5855 5855 5854 5854 5853 5852 5851
5831 5833 5835 5836 5838 5839 5841 5842 5843 5844 5846 5847 5848 5849 5850 5850 5851 5852 5852 5853 5854 5854 5854 5854 5854 5855 5855 5854 5854 5854 5854 5854 5854 5853 5853 5853 5853 5852 5852 5851 5850 5850 5849
5825 5826 5828 5830 5832 5834 5835 5837 5838 5840 5841 5842 5843 5844 5845 5846 5847 5848 5849 5849 5850 5850 5851 5851 5851 5851 5851 5851 5851 5851 5851 5851 5851 5850 5850 5850 5850 5849 5849 5848 5847 5847 5846
5818 5819 5821 5823 5825 5827 5829 5831 5833 5834 5836 5837 5838 5839 5840 5841 5842 5843 5844 5845 5846 5846 5847 5847 5847 5848 5848 5848 5848 5848 5848 5848 5847 5847 5847 5846 5846 5846 5845 5845 5844 5843 5842
5810 5812 5814 5816 5818 5821 5823 5825 5827 5828 5830 5832 5833 5834 5835 5836 5837 5838 5839 5840 5841 5842 5842 5843 5843 5843 5844 5844 5844 5844 5844 5844 5844 5843 5843 5843 5842 5842 5841 5841 5840 5839 5838
5802 5804 5806 5809 5811 5813 5816 5818 5820 5822 5824 5825 5827 5828 5829 5830 5831 5833 5834 5835 5836 5837 5837 5838 5838 5839 5839 5839 5839 5840 5839 5839 5839 5839 5839 5838 5838 5838 5837 5837 5836 5835 5834
5794 5796 5798 5800 5803 5805 5808 5810 5812 5814 5816 5818 5820 5822 5823 5824 5825 5826 5827 5829 5830 5831 5832 5832 5833 5833 5834 5834 5834 5835 5835 5834 5834 5834 5834 5834 5834 5833 5833 5832 5831 5830 5830
5785 5788 5790 5792 5794 5797 5800 5802 5804 5806 5808 5811 5812 5814 5816 5817 5819 5819 5820 5822 5823 5824 5825 5826 5827 5827 5828 5828 5829 5829 5829 5829 5829 5829 5829 5829 5828 5828 5827 5827 5826 5826 5825
5775 5778 5780 5783 5785 5788 5790 5793 5795 5798 5800 5802 5804 5806 5808 5809 5811 5812 5813 5815 5816 5817 5818 5819 5820 5821 5821 5822 5822 5823 5823 5823 5823 5823 5823 5823 5823 5822 5822 5821 5821 5820 5819
5765 5768 5770 5772 5775 5778 5780 5783 5786 5788 5790 5793 5795 5797 5799 5801 5803 5804 5805 5807 5808 5809 5810 5811 5812 5813 5814 5815 5815 5816 5816 5816 5816 5816 5817 5816 5816 5816 5816 5815 5815 5814 5813
5754 5757 5759 5762 5764 5767 5770 5773 5775 5778 5780 5782 5785 5788 5790 5792 5794 5796 5797 5798 5799 5800 5802 5803 5804 5805 5807 5807 5808 5808 5809 5809 5809 5809 5809 5809 5809 5809 5809 5808 5808 5807 5807
5744 5747 5749 5751 5754 5756 5759 5762 5764 5767 5769 5772 5775 5777 5779 5782 5784 5786 5788 5789 5790 5791 5792 5794 5795 5796 5798 5799 5800 5800 5801 5801 5801 5801 5801 5802 5801 5801 5801 5801 5800 5800 5800
5734 5736 5738 5741 5743 5745 5748 5751 5753 5755 5758 5761 5764 5766 5769 5771 5773 5775 5777 5779 5780 5781 5782 5784 5785 5787 5788 5790 5791 5792 5792 5793 5793 5793 5794 5794 5794 5793 5793 5792 5792 5792 5792
5724 5726 5728 5730 5732 5735 5737 5740 5742 5744 5747 5750 5753 5755 5758 5760 5762 5764 5766 5767 5769 5770 5771 5773 5775 5777 5779 5780 5781 5782 5783 5784 5785 5785 5785 5786 5786 5785 5785 5785 5784 5784 5785
5713 5716 5718 5720 5721 5724 5727 5729 5732 5734 5736 5738 5741 5744 5746 5749 5751 5753 5754 5755 5757 5759 5761 5763 5765 5766 5768 5770 5771 5772 5773 5774 5776 5776 5777 5777 5777 5777 5777 5776 5776 5776 5777
5702 5704 5707 5708 5711 5713 5716 5718 5721 5723 5725 5727 5729 5732 5735 5738 5739 5741 5743 5744 5745 5747 5750 5752 5754 5756 5758 5759 5761 5762 5764 5765 5766 5767 5768 5768 5769 5769 5768 5768 5768 5768 5768
5691 5693 5695 5697 5700 5702 5705 5707 5710 5712 5714 5716 5718 5720 5724 5727 5728 5730 5732 5733 5734 5736 5739 5742 5744 5746 5748 5749 5751 5753 5754 5755 5756 5757 5758 5759 5760 5760 5759 5759 5759 5759 5759
5680 5682 5684 5687 5689 5691 5694 5697 5700 5702 5704 5706 5708 5710 5713 5715 5717 5719 5720 5722 5724 5726 5729 5731 5733 5735 5737 5739 5741 5742 5744 5744 5746 5747 5748 5749 5750 5750 5750 5750 5750 5750 5751
5670 5672 5674 5676 5679 5681 5684 5687 5690 5692 5694 5696 5698 5700 5702 5704 5706 5708 5710 5712 5714 5717 5719 5721 5723 5725 5727 5729 5731 5732 5734 5736 5736 5737 5738 5740 5740 5741 5741 5741 5741 5741 5742
5661 5663 5664 5666 5669 5671 5674 5676 5679 5681 5684 5686 5688 5690 5691 5693 5695 5697 5700 5702 5704 5706 5708 5710 5712 5714 5716 5718 5720 5722 5723 5726 5727 5728 5729 5730 5731 5731 5731 5731 5731 5732 5732
5652 5653 5655 5657 5659 5661 5664 5667 5670 5672 5674 5676 5678 5679 5680 5682 5684 5686 5688 5691 5693 5695 5697 5698 5701 5703 5705 5708 5709 5711 5713 5715 5717 5718 5720 5720 5721 5722 5722 5722 5722 5723 5723
5643 5643 5645 5647 5649 5651 5654 5657 5659 5661 5663 5664 5666 5668 5669 5671 5673 5675 5677 5680 5682 5683 5685 5687 5689 5692 5695 5697 5699 5701 5703 5705 5706 5708 5710 5711 5712 5713 5713 5713 5713 5713 5714
5634 5634 5635 5637 5639 5641 5644 5646 5648 5650 5651 5654 5655 5656 5658 5660 5662 5664 5665 5668 5670 5672 5674 5676 5678 5681 5684 5686 5688 5690 5692 5695 5697 5698 5700 5701 5702 5703 5703 5703 5703 5704 5704